Date,TemperatureHighF,TemperatureAvgF,TemperatureLowF,DewpointHighF,DewpointAvgF,DewpointLowF,HumidityHigh,HumidityAvg,HumidityLow,PressureMaxIn,PressureMinIn,WindSpeedMaxMPH,WindSpeedAvgMPH,GustSpeedMaxMPH,PrecipitationSumIn
2014-1-1,23.7,20.1,16.2,22.3,19.1,14.6,99,96,89,30.22,30.13,25,13,25,0.00
2014-1-2,16.6,11.6,3.3,15.3,8.4,0.4,97,87,75,30.46,30.13,29,10,29,0.00
2014-1-3,21.4,11.9,-2.8,16.6,7.5,-6.1,92,83,72,30.48,29.96,36,12,36,0.00
2014-1-4,36.1,28.5,20.7,32.3,23.7,15.1,100,83,65,30.01,29.88,32,11,32,0.00
2014-1-5,25.7,10.8,-3.8,25.7,7.4,-12.5,100,86,63,30.24,29.94,42,16,42,0.00
2014-1-6,-3.3,-8.6,-13.5,-13.5,-17.7,-22.8,68,63,58,30.39,30.23,39,16,41,0.00
2014-1-7,12.0,2.3,-9.2,3.5,-4.9,-16.9,83,71,62,30.38,30.23,16,6,17,0.00
2014-1-8,18.4,12.2,7.6,8.1,4.3,-1.0,88,71,52,30.51,30.26,12,4,12,0.00
2014-1-9,31.1,22.4,12.1,31.1,20.1,2.9,100,91,64,30.50,30.15,14,6,14,0.00
2014-1-10,40.2,35.8,30.8,40.1,35.8,30.6,100,100,100,30.16,29.52,26,10,26,0.94
2014-1-11,40.9,35.1,31.0,38.8,34.0,0.0,100,96,76,29.89,29.49,31,13,31,21.62
2014-1-12,46.4,38.2,28.6,37.9,34.4,28.5,100,87,68,29.92,29.61,36,14,36,0.02
2014-1-13,48.4,37.4,28.5,39.2,34.8,28.2,100,91,64,29.84,29.58,30,9,31,22.08
2014-1-14,36.7,29.7,23.4,35.7,25.2,15.8,100,84,58,30.01,29.69,58,17,58,0.01
2014-1-15,24.8,20.7,15.6,17.6,13.3,8.9,87,73,55,30.18,29.89,28,12,28,22.31
2014-1-16,42.2,29.1,17.0,35.1,25.1,12.5,100,86,57,29.89,29.57,34,15,34,0.01
2014-1-17,17.7,12.3,7.1,14.2,6.6,2.2,87,78,68,30.07,29.81,34,12,35,22.54
2014-1-18,28.9,19.6,8.9,28.5,17.7,5.9,100,93,70,30.02,29.63,26,8,26,22.54
2014-1-19,42.1,30.0,14.0,33.9,25.2,13.0,97,83,67,29.99,29.66,30,13,30,22.54
2014-1-20,40.7,32.6,17.6,33.9,29.2,17.3,100,88,67,30.02,29.70,34,10,34,22.54
2014-1-21,18.2,7.3,2.8,17.9,-0.3,-6.4,99,71,49,30.38,30.02,29,8,29,22.54
2014-1-22,21.7,10.8,2.6,14.1,4.0,-7.0,88,74,58,30.33,29.98,41,14,41,21.56
2014-1-23,6.3,0.5,-3.3,-4.7,-8.9,-71.8,72,64,58,30.70,30.33,29,12,29,22.54
2014-1-24,31.4,17.0,-3.3,25.9,7.1,-10.1,84,66,46,30.64,29.60,44,16,44,22.54
2014-1-25,35.5,22.8,11.1,34.6,9.2,-3.6,97,57,28,29.97,29.56,43,16,47,23.52
2014-1-26,44.1,27.1,9.8,32.3,15.1,-5.9,92,60,45,30.03,29.49,56,18,56,22.54
2014-1-27,10.0,4.7,1.1,-3.7,-7.5,-69.4,64,56,48,30.39,30.03,44,21,44,13.72
2014-1-28,12.2,7.6,5.9,-2.3,-3.2,-4.4,64,61,48,30.36,30.31,10,6,11,6.86
2014-1-29,30.7,18.3,4.5,7.9,3.3,-3.3,71,53,32,30.31,30.03,28,10,28,22.54
2014-1-30,35.6,26.8,21.1,31.7,17.6,0.0,100,72,33,30.04,29.72,45,16,45,22.54
2014-1-31,22.0,19.9,18.1,20.6,17.8,12.9,100,92,77,30.18,29.99,22,6,22,22.54
2014-2-1,29.7,25.3,20.6,29.4,25.0,20.4,100,99,94,30.13,29.84,17,8,17,22.54
2014-2-2,23.2,13.0,3.7,21.8,7.6,-1.1,95,79,62,30.35,30.13,20,5,20,22.54
2014-2-3,19.0,6.0,-6.9,6.2,-0.6,-11.6,92,74,56,30.42,30.33,9,1,9,22.54
2014-2-4,21.3,15.8,7.5,21.2,12.8,2.3,100,88,66,30.39,30.03,26,10,29,22.54
2014-2-5,22.3,15.9,3.6,21.5,13.2,-0.4,100,89,77,30.53,30.00,27,12,28,22.54
2014-2-6,7.3,-0.1,-6.4,-0.2,-7.4,-14.5,84,71,58,30.57,30.46,20,8,20,22.54
2014-2-7,12.6,3.2,-9.5,3.0,-4.2,-14.6,80,71,62,30.49,30.35,12,4,12,22.54
2014-2-8,20.9,16.8,8.5,19.9,14.4,0.9,97,90,70,30.35,30.14,13,4,13,23.52
2014-2-9,20.7,14.1,2.3,20.0,8.2,-5.3,99,78,58,30.37,30.13,22,9,22,23.52
2014-2-10,11.1,-0.6,-10.2,-3.4,-9.4,-15.7,85,67,48,30.51,30.37,14,5,14,20.58
2014-2-11,12.3,-0.8,-13.5,-0.3,-8.5,-19.7,84,70,55,30.55,30.36,10,1,10,23.52
2014-2-12,25.1,11.0,-5.5,12.8,4.3,-9.6,90,75,53,30.36,30.03,11,2,11,23.52
2014-2-13,36.4,21.7,4.0,30.5,16.0,1.4,93,79,61,30.03,29.63,34,9,34,22.54
2014-2-14,21.6,15.1,8.3,18.1,10.6,3.5,96,82,72,30.03,29.71,26,8,26,22.54
2014-2-15,21.5,10.2,-3.7,20.6,7.2,-6.4,98,88,70,30.15,29.97,19,5,19,22.54
2014-2-16,26.7,20.7,17.0,21.7,16.6,10.9,97,85,63,30.27,29.96,21,6,21,22.54
2014-2-17,35.6,28.8,17.9,34.1,27.6,16.5,100,95,84,30.22,29.75,34,12,34,22.54
2014-2-18,43.6,34.9,24.0,33.5,29.3,22.6,100,81,56,29.99,29.71,31,9,31,21.56
2014-2-19,41.7,36.6,30.7,34.4,32.5,30.1,98,85,68,30.02,29.74,21,7,21,22.54
2014-2-20,51.2,38.6,34.4,51.0,37.6,32.6,100,96,87,29.87,29.23,55,14,55,0.01
2014-2-21,41.4,34.5,28.3,33.3,24.0,15.2,100,67,44,29.92,29.53,43,14,43,22.77
2014-2-22,36.6,31.6,26.2,32.9,26.3,18.6,97,81,64,30.11,29.91,14,3,14,23.76
2014-2-23,30.6,24.2,20.5,19.9,12.1,6.5,75,60,44,30.33,30.10,20,10,20,23.76
2014-2-24,28.6,23.5,17.7,14.3,11.5,8.1,77,60,43,30.39,30.26,21,9,21,23.76
2014-2-25,24.9,17.1,9.1,18.1,8.5,-2.7,93,69,50,30.32,30.24,33,14,33,23.76
2014-2-26,22.7,13.9,1.8,8.7,0.1,-6.3,71,54,38,30.33,29.80,29,14,29,22.77
2014-2-27,22.6,11.0,5.9,10.5,-3.9,-9.6,66,51,37,30.21,29.80,39,10,39,23.76
2014-2-28,39.4,24.8,6.1,22.7,10.9,-3.5,69,56,38,30.18,29.95,27,8,27,23.76
2014-3-1,32.2,23.3,13.3,28.9,18.1,9.6,98,81,62,30.35,30.00,16,7,20,23.76
2014-3-2,75.2,7.4,1.6,13.0,-2.1,-12.4,97,66,46,30.46,30.32,22,9,22,23.76
2014-3-3,17.0,7.2,-4.4,3.3,-5.1,-17.1,70,57,47,30.54,30.34,17,5,17,23.76
2014-3-4,32.0,21.5,10.4,15.8,10.5,1.5,84,63,44,30.37,30.16,17,4,17,23.76
2014-3-5,27.2,23.2,19.4,23.0,18.4,9.8,96,83,57,30.40,30.21,27,11,27,22.77
2014-3-6,32.6,25.4,18.2,27.0,21.2,13.8,99,84,60,30.38,30.09,14,5,16,22.77
2014-3-7,51.4,38.2,24.0,36.3,31.2,24.0,100,78,45,30.09,29.90,17,5,18,22.77
2014-3-8,38.8,33.8,30.2,35.5,32.9,30.2,100,97,86,30.31,30.00,22,6,22,22.77
2014-3-9,47.2,36.5,26.1,37.2,31.8,0.0,100,84,59,30.31,29.92,24,10,24,0.99
2014-3-10,59.1,46.8,36.6,43.8,38.0,33.6,96,74,45,29.92,29.72,21,7,21,0.00
2014-3-11,58.2,43.7,35.8,52.2,40.9,35.8,100,91,58,29.72,29.60,36,8,36,0.00
2014-3-12,36.1,32.3,28.4,36.1,30.9,24.7,100,95,78,30.15,29.62,33,9,38,0.00
2014-3-13,47.6,34.3,21.5,42.3,31.2,20.8,99,89,74,30.17,29.89,29,9,29,0.00
2014-3-14,57.7,45.9,37.3,37.3,34.1,28.8,95,66,36,29.98,29.69,40,15,40,0.00
2014-3-15,50.9,39.8,31.1,36.2,31.4,20.9,97,75,44,30.16,29.98,34,9,34,0.00
2014-3-16,31.5,26.5,21.1,30.5,17.7,6.9,97,71,41,30.28,30.15,44,19,44,0.00
2014-3-17,41.1,28.9,18.9,27.4,19.2,14.3,90,69,39,30.16,29.80,14,6,16,0.00
2014-3-18,52.4,41.2,31.3,44.2,36.7,26.7,100,85,58,29.85,29.60,31,10,31,0.00
2014-3-19,46.4,40.5,34.1,46.4,39.2,29.9,100,95,78,30.10,29.58,34,16,34,0.00
2014-3-20,53.9,41.7,29.2,37.8,31.9,24.1,100,73,34,30.10,29.96,16,6,16,0.00
2014-3-21,62.9,48.1,36.3,39.7,34.9,31.2,93,64,32,29.99,29.73,36,10,36,0.00
2014-3-22,42.9,37.3,30.2,35.6,25.4,12.8,85,63,41,30.36,29.97,37,12,37,0.00
2014-3-23,34.7,28.6,22.8,16.4,11.6,6.1,62,49,31,30.48,30.36,21,7,23,0.00
2014-3-24,38.5,31.3,24.3,22.5,14.3,5.6,72,51,28,30.40,30.13,13,4,13,0.00
2014-3-25,33.4,28.1,21.3,31.2,15.2,5.6,100,60,37,30.30,30.08,38,14,38,0.00
2014-3-26,43.7,31.8,17.4,20.4,15.2,10.5,93,53,30,30.35,29.99,30,10,30,0.00
2014-3-27,55.0,44.4,35.9,54.7,42.3,20.0,100,93,46,30.00,29.50,48,17,48,0.00
2014-3-28,48.7,41.9,38.5,46.6,39.5,37.1,100,92,76,30.19,29.57,46,10,46,0.00
2014-3-29,47.4,40.0,35.0,38.8,32.6,21.5,100,78,38,30.27,30.13,24,6,24,0.00
2014-3-30,59.5,44.7,28.7,38.2,32.9,28.3,100,68,36,30.28,30.05,24,8,24,0.00
2014-3-31,65.8,54.4,42.3,42.1,36.5,32.1,88,54,31,30.06,29.74,41,16,41,0.00
2014-4-1,54.3,45.1,31.8,46.1,26.6,19.7,76,49,33,30.12,29.77,29,14,39,0.00
2014-4-2,48.4,44.5,40.4,41.9,34.9,26.9,90,69,52,30.14,29.95,23,9,23,0.00
2014-4-3,49.4,45.0,40.1,49.3,44.7,38.0,100,99,81,29.95,29.53,31,11,31,0.00
2014-4-4,49.5,40.5,36.5,49.5,37.3,30.3,100,89,68,30.12,29.50,34,17,41,0.00
2014-4-5,52.7,43.4,33.8,33.2,28.9,8.9,88,58,35,30.26,30.12,18,4,18,0.00
2014-4-6,56.9,44.8,32.1,39.7,33.0,24.7,99,69,31,30.18,29.93,16,4,16,0.00
2014-4-7,56.4,48.4,40.0,47.7,35.3,20.7,95,65,26,29.93,29.66,23,7,23,0.00
2014-4-8,60.3,50.9,40.1,47.3,34.8,21.7,100,60,24,29.99,29.71,27,10,27,0.00
2014-4-9,64.4,52.1,36.4,38.6,29.7,17.2,95,48,17,30.10,29.91,26,10,26,0.00
2014-4-10,65.8,57.1,49.8,39.3,33.0,18.9,56,41,22,30.00,29.77,28,11,28,0.00
2014-4-11,71.9,57.7,39.9,33.5,21.4,3.2,63,30,7,30.10,30.00,18,5,18,0.00
2014-4-12,79.8,65.7,48.0,53.9,45.4,31.2,70,49,31,30.05,29.68,40,15,40,0.00
2014-4-13,69.5,64.2,59.8,67.3,61.2,52.8,100,90,66,29.81,29.44,40,12,40,0.00
2014-4-14,62.2,41.2,32.2,61.9,40.7,30.4,100,98,91,30.07,29.44,36,13,36,0.00
2014-4-15,43.4,35.5,27.7,31.0,23.1,13.2,98,65,32,30.22,30.07,29,8,29,0.00
2014-4-16,54.4,43.6,31.8,28.0,24.7,19.4,81,50,26,30.27,30.08,30,13,36,0.00
2014-4-17,60.4,50.6,38.5,40.6,34.3,13.4,81,55,32,30.31,30.12,23,8,23,6.37
2014-4-18,64.7,53.4,41.7,44.2,32.8,12.9,92,54,14,30.37,30.26,19,5,19,0.00
2014-4-19,73.0,56.1,36.3,37.4,25.2,0.0,77,36,11,30.35,27.21,22,7,22,0.00
2014-4-20,80.8,65.0,48.0,41.4,33.1,23.0,73,36,12,30.23,30.05,26,7,26,0.00
2014-4-21,72.4,63.9,57.5,66.4,51.4,37.5,100,67,37,30.06,29.89,26,7,26,0.00
2014-4-22,63.9,56.1,44.8,59.2,31.8,15.2,100,44,16,30.08,29.89,26,11,26,0.00
2014-4-23,60.4,49.0,36.0,36.4,28.6,14.3,80,49,17,30.20,29.97,16,7,16,0.00
2014-4-24,72.5,59.1,48.1,59.0,38.2,27.2,100,51,21,30.00,29.61,32,11,32,0.00
2014-4-25,74.0,61.1,47.3,57.2,41.3,23.8,100,58,16,29.92,29.64,30,11,30,0.00
2014-4-26,75.5,59.5,47.4,47.9,36.2,24.5,88,46,21,29.95,29.85,31,9,31,0.00
2014-4-27,74.7,59.5,46.9,66.3,47.4,26.4,100,68,32,29.94,29.64,30,11,30,0.00
2014-4-28,72.5,59.9,53.3,67.5,59.1,44.3,100,98,46,29.70,29.42,49,9,51,0.00
2014-4-29,57.7,54.2,50.9,56.2,51.4,46.0,100,91,70,29.71,29.45,34,9,34,0.00
2014-4-30,51.3,47.2,42.9,50.7,44.4,38.8,100,90,66,29.86,29.69,19,10,22,0.00
2014-5-1,50.9,46.5,43.2,49.3,45.4,42.1,100,96,78,29.93,29.78,31,13,31,0.00
2014-5-2,57.7,50.8,45.8,48.4,45.1,38.6,100,83,52,29.92,29.76,25,11,25,0.00
2014-5-3,71.3,59.1,45.6,51.5,38.4,23.2,96,55,18,29.97,29.76,34,11,34,0.00
2014-5-4,66.3,57.2,46.9,50.2,34.5,13.4,96,48,21,30.08,29.96,28,8,28,0.00
2014-5-5,70.2,57.6,46.2,37.3,29.3,12.5,53,35,21,30.02,29.84,28,11,28,0.00
2014-5-6,79.4,63.2,44.9,52.4,40.0,30.4,81,47,23,29.95,29.74,27,11,27,0.00
2014-5-7,87.6,76.0,64.8,63.3,52.8,42.8,66,46,23,29.82,29.75,34,12,34,0.00
2014-5-8,87.3,74.9,65.8,70.1,58.8,43.3,100,64,24,29.89,29.80,42,15,46,0.00
2014-5-9,73.2,67.1,57.5,68.2,56.4,41.2,100,73,33,29.93,29.74,29,12,29,0.00
2014-5-10,78.4,66.5,50.7,54.7,40.9,26.1,99,49,15,29.99,29.86,37,5,37,0.00
2014-5-11,84.5,72.3,61.1,73.0,60.6,41.0,100,71,37,29.97,29.84,30,10,30,0.00
2014-5-12,88.0,76.5,65.8,73.9,67.5,57.1,100,79,36,29.96,29.80,51,14,51,0.00
2014-5-13,66.3,57.0,51.5,66.2,56.4,50.3,100,98,89,30.22,29.87,23,10,23,0.00
2014-5-14,55.4,50.6,47.1,50.6,45.9,37.7,100,85,53,30.21,30.02,19,6,19,0.00
2014-5-15,58.2,50.0,45.1,51.2,46.7,33.8,100,90,42,30.06,29.99,23,6,23,0.00
2014-5-16,49.2,45.5,42.1,47.3,44.0,36.7,100,95,63,30.15,29.98,18,5,18,0.00
2014-5-17,61.5,50.9,38.2,47.1,35.4,24.4,100,63,25,30.24,30.13,16,3,16,0.00
2014-5-18,68.5,56.5,41.6,46.2,37.5,29.1,97,55,24,30.30,30.20,23,5,23,0.00
2014-5-19,74.3,62.8,46.7,59.8,47.3,38.0,96,61,34,30.23,29.90,38,11,38,0.00
2014-5-20,86.5,75.2,62.9,68.2,61.1,54.1,99,66,35,29.98,29.84,26,10,26,0.00
2014-5-21,88.7,78.5,69.4,69.9,61.3,43.4,96,60,31,29.99,29.84,19,7,19,0.00
2014-5-22,74.3,66.6,60.2,53.5,45.2,38.7,78,47,32,30.20,29.99,21,6,21,0.00
2014-5-23,78.5,67.4,53.9,53.7,42.1,31.7,88,45,19,30.20,30.12,15,4,16,0.00
2014-5-24,79.3,67.5,52.2,46.3,40.4,33.2,69,40,19,30.24,30.11,14,4,14,0.00
2014-5-25,82.3,72.6,62.4,57.1,48.3,36.1,69,44,20,30.15,30.03,22,6,22,0.00
2014-5-26,89.4,74.8,62.2,71.1,61.4,50.8,94,68,27,30.08,29.93,32,7,32,0.00
2014-5-27,85.8,75.8,67.3,69.9,61.2,47.7,97,66,29,30.02,29.91,21,7,21,0.00
2014-5-28,86.2,73.1,64.0,73.2,64.9,53.2,100,80,32,30.02,29.93,23,4,26,0.00
2014-5-29,82.0,70.5,59.8,74.0,66.2,59.8,100,88,50,30.09,30.00,16,7,22,0.00
2014-5-30,86.0,74.4,61.4,69.0,52.3,24.7,96,55,12,30.15,30.06,23,5,23,0.00
2014-5-31,87.7,75.9,63.1,59.0,52.3,43.6,85,47,25,30.17,30.03,21,5,21,0.00
2014-6-1,88.6,79.2,70.1,71.8,56.0,47.7,83,46,33,30.08,29.89,36,10,36,0.00
2014-6-2,85.7,78.9,73.1,73.1,62.3,52.7,96,60,34,29.94,29.84,39,13,39,0.00
2014-6-3,87.1,77.4,68.4,70.4,55.4,39.6,98,54,20,30.02,29.89,20,6,20,0.00
2014-6-4,72.7,66.1,60.5,71.5,65.4,60.5,100,98,79,29.97,29.63,28,7,34,0.00
2014-6-5,76.4,66.0,55.8,62.0,53.3,42.2,100,69,30,30.01,29.90,14,4,14,0.00
2014-6-6,82.5,71.0,57.4,65.6,55.8,48.1,95,64,32,30.02,29.94,14,2,14,0.00
2014-6-7,78.4,67.8,61.4,68.9,61.4,49.3,100,84,39,30.01,29.74,32,6,32,0.00
2014-6-8,76.4,68.1,61.5,64.7,60.2,48.3,100,78,45,30.05,29.79,29,7,29,0.00
2014-6-9,79.1,67.9,54.9,64.1,54.1,39.6,87,63,40,30.05,29.87,17,4,17,0.00
2014-6-10,67.8,63.9,61.8,66.0,63.7,61.8,100,99,86,29.88,29.74,16,6,16,0.00
2014-6-11,69.6,64.5,61.7,68.1,64.4,61.6,100,99,94,29.82,29.69,14,5,14,0.00
2014-6-12,78.4,68.0,60.4,71.4,64.3,59.2,100,89,70,29.94,29.79,25,7,25,0.00
2014-6-13,74.5,64.7,54.0,59.7,45.1,29.5,96,55,21,30.08,29.94,21,5,21,0.00
2014-6-14,77.9,65.6,50.9,58.2,46.5,34.2,100,58,22,30.12,29.95,26,6,28,0.00
2014-6-15,85.9,73.0,61.2,68.9,56.9,47.6,94,59,37,30.02,29.80,38,10,38,0.00
2014-6-16,88.1,77.4,65.3,76.8,70.4,62.5,100,81,45,30.10,29.89,24,7,24,0.00
2014-6-17,89.8,80.7,74.7,75.6,72.3,64.0,100,78,46,30.00,29.88,30,11,30,0.00
2014-6-18,89.7,80.5,72.3,77.4,73.9,60.5,100,82,49,29.99,29.90,27,7,27,0.00
2014-6-19,91.4,82.2,69.5,78.6,70.8,61.5,100,73,38,30.09,29.97,30,6,30,0.81
2014-6-20,86.1,76.8,69.3,78.8,68.0,53.3,100,78,36,30.05,29.97,19,5,19,0.03
2014-6-21,87.5,74.1,65.9,75.3,68.0,60.4,100,84,45,30.01,29.87,31,5,31,0.00
2014-6-22,87.3,72.9,63.3,74.9,68.3,62.2,100,88,46,29.95,29.85,42,4,42,0.75
2014-6-23,82.5,74.1,67.0,75.7,71.8,67.0,100,93,68,29.90,29.84,15,4,15,0.14
2014-6-24,84.8,76.3,69.9,77.1,68.6,56.3,100,81,41,29.96,29.87,18,5,18,0.16
2014-6-25,86.7,77.2,67.0,72.4,65.0,55.6,100,70,37,30.04,29.95,11,5,13,0.00
2014-6-26,87.3,75.0,62.7,75.9,66.1,53.8,100,79,32,30.08,29.96,14,3,14,0.00
2014-6-27,85.8,76.6,68.1,76.3,70.1,62.0,100,83,46,30.03,29.97,24,6,24,0.00
2014-6-28,85.4,77.4,71.4,76.6,73.7,70.3,100,89,63,30.05,29.90,25,10,25,0.00
2014-6-29,84.5,76.7,67.9,79.3,74.4,67.7,100,93,76,30.03,29.88,34,10,34,0.64
2014-6-30,87.6,75.9,66.1,82.4,74.7,66.1,100,96,79,29.94,29.64,37,9,37,1.22
2014-7-1,82.1,73.6,66.7,72.6,65.8,56.3,100,80,43,29.88,29.71,22,7,22,0.01
2014-7-2,70.3,64.6,60.1,67.9,61.6,56.3,100,90,66,30.08,29.87,20,7,20,0.00
2014-7-3,75.8,66.9,59.5,62.6,55.9,43.1,100,72,33,30.24,30.07,17,6,17,0.00
2014-7-4,78.8,67.8,54.2,62.2,52.0,40.9,99,63,27,30.34,30.24,10,2,11,0.00
2014-7-5,76.3,67.1,57.2,68.6,58.8,49.0,100,79,40,30.28,30.08,21,4,21,0.34
2014-7-6,84.0,73.6,63.8,77.5,71.4,63.8,100,93,72,30.08,29.83,25,8,25,0.20
2014-7-7,87.4,78.9,72.5,78.4,70.6,58.2,99,79,41,29.84,29.70,26,6,26,0.00
2014-7-8,80.5,73.7,67.0,74.8,64.7,53.1,100,77,42,29.92,29.69,28,10,28,0.15
2014-7-9,78.0,70.5,62.2,68.0,57.6,45.3,100,69,33,30.09,29.91,21,6,21,0.00
2014-7-10,79.3,69.6,58.2,64.5,56.9,48.2,100,69,36,30.20,30.08,10,2,10,0.00
2014-7-11,82.4,71.2,58.4,72.7,62.2,52.8,100,77,39,30.22,30.07,18,4,18,0.01
2014-7-12,87.8,78.9,71.7,81.3,76.2,71.1,100,92,69,30.12,29.91,25,6,25,0.07
2014-7-13,83.5,76.1,70.7,77.1,71.3,62.1,100,87,50,30.00,29.92,21,4,21,0.60
2014-7-14,81.3,71.1,61.5,77.2,61.7,45.3,100,76,36,29.96,29.86,53,6,53,0.51
2014-7-15,68.2,61.8,55.6,58.2,54.0,48.4,96,77,51,30.03,29.95,18,9,21,0.00
2014-7-16,74.4,64.9,54.6,62.0,52.4,40.9,100,69,32,30.08,30.02,14,3,14,0.00
2014-7-17,79.2,67.6,54.3,64.2,56.2,47.7,100,72,35,30.13,30.06,13,2,13,0.00
2014-7-18,79.3,68.1,57.8,64.4,58.7,48.2,100,76,35,30.18,30.09,13,2,13,0.00
2014-7-19,79.3,68.2,56.9,68.3,58.5,48.3,100,76,36,30.11,30.04,9,2,9,0.00
2014-7-20,81.3,70.2,58.4,67.6,61.0,54.4,100,77,41,30.10,30.03,13,2,13,0.00
2014-7-21,85.5,73.8,60.4,73.2,66.4,60.3,100,81,47,30.13,30.05,16,4,16,0.00
2014-7-22,87.3,78.0,68.1,79.9,73.8,67.3,100,88,61,30.09,30.00,21,6,21,0.00
2014-7-23,79.7,72.5,61.9,79.3,62.7,49.7,100,74,42,30.16,30.01,26,8,26,0.00
2014-7-24,75.0,66.3,56.5,62.1,54.2,44.4,95,69,35,30.19,30.03,19,5,19,0.00
2014-7-25,73.1,63.9,57.8,67.3,62.2,57.0,100,95,76,30.12,29.89,32,4,32,0.23
2014-7-26,80.3,73.2,66.9,79.4,72.3,65.2,100,97,88,29.93,29.82,28,5,28,0.00
2014-7-27,82.5,74.2,66.3,78.4,64.1,50.6,100,75,35,29.96,29.80,34,10,34,0.00
2014-7-28,72.3,65.5,57.9,64.6,54.4,42.5,100,71,38,30.13,29.95,20,6,20,0.00
2014-7-29,78.0,66.9,55.7,63.1,56.0,49.2,99,73,38,30.13,30.05,18,7,18,0.00
2014-7-30,80.3,69.6,59.5,67.1,59.0,48.5,100,74,37,30.10,30.04,15,5,15,0.00
2014-7-31,83.3,70.9,58.2,69.6,60.2,49.6,100,74,33,30.10,30.05,13,2,13,0.00
2014-8-1,81.4,67.2,61.9,71.8,64.2,58.6,100,92,47,30.13,30.07,16,2,18,0.75
2014-8-2,83.0,70.5,58.3,72.2,64.4,58.3,100,84,44,30.19,30.09,7,1,11,0.00
2014-8-3,84.3,72.6,60.1,72.8,64.3,56.7,100,79,41,30.20,30.10,10,2,10,0.00
2014-8-4,84.8,72.5,61.5,73.4,65.2,58.4,100,82,42,30.14,30.02,24,5,24,1.40
2014-8-5,77.8,71.1,64.8,74.3,69.8,64.8,100,96,75,30.09,30.01,9,4,11,1.51
2014-8-6,76.2,69.5,64.2,74.1,69.2,64.2,100,99,91,30.11,30.01,10,2,10,0.01
2014-8-7,70.6,67.8,63.6,70.5,67.3,61.5,100,98,88,30.06,29.98,13,4,13,0.04
2014-8-8,74.3,69.1,64.0,73.2,68.6,63.8,100,99,91,30.05,29.98,17,4,17,0.02
2014-8-9,77.8,71.4,65.2,70.3,67.2,64.3,100,87,67,30.07,30.01,15,5,15,0.00
2014-8-10,80.5,72.8,65.8,75.3,70.6,65.2,100,93,78,30.04,29.95,14,4,14,0.04
2014-8-11,82.1,73.9,66.5,74.6,69.3,60.3,100,87,52,29.97,29.86,24,7,24,0.01
2014-8-12,75.3,66.5,60.5,65.1,56.7,45.1,100,75,38,30.03,29.88,31,10,31,0.00
2014-8-13,79.8,68.5,57.0,65.1,58.2,52.8,100,74,41,30.12,30.02,11,6,15,0.00
2014-8-14,79.4,69.8,60.6,68.9,62.9,55.8,100,81,47,30.11,30.05,13,4,13,0.00
2014-8-15,73.8,65.0,54.8,67.4,58.7,47.1,100,82,53,30.11,29.97,10,2,10,0.00
2014-8-16,74.5,68.9,64.2,72.9,68.5,64.2,100,99,93,29.97,29.90,16,3,16,0.02
2014-8-17,76.7,70.0,66.0,74.8,69.7,65.7,100,99,92,29.95,29.88,14,5,16,0.00
2014-8-18,83.3,72.4,63.6,75.5,69.1,63.6,100,91,65,29.94,29.81,10,3,10,0.00
2014-8-19,83.3,73.5,67.2,78.3,71.5,66.9,100,94,68,29.87,29.76,36,5,36,0.14
2014-8-20,80.3,72.2,63.1,77.4,71.4,63.1,100,98,74,30.00,29.84,19,4,20,0.10
2014-8-21,88.5,78.8,69.2,81.6,75.9,69.0,100,92,69,29.99,29.92,18,4,18,0.00
2014-8-22,87.0,78.1,71.7,80.3,76.5,71.6,100,95,71,30.03,29.89,27,4,27,0.28
2014-8-23,84.8,75.8,71.9,83.6,75.3,71.7,100,98,85,30.03,29.92,44,3,44,0.61
2014-8-24,92.9,80.5,68.1,83.8,76.3,68.1,100,89,53,30.01,29.95,10,3,11,18.48
2014-8-25,94.2,81.5,73.0,83.4,76.6,63.5,100,87,47,30.08,29.98,19,5,19,18.48
2014-8-26,88.5,78.3,70.0,81.3,76.0,69.8,100,93,69,30.13,30.03,16,3,16,18.48
2014-8-27,83.3,75.4,69.6,74.6,71.7,65.6,100,89,58,30.16,30.07,14,4,14,18.48
2014-8-28,82.2,71.6,62.2,77.8,69.8,61.8,100,95,74,30.11,29.99,24,4,24,1.44
2014-8-29,86.5,74.6,69.2,78.4,72.3,69.0,100,93,60,30.00,29.85,24,4,24,0.73
2014-8-30,84.4,75.2,70.4,78.5,73.6,70.1,100,95,68,29.95,29.87,21,6,21,0.18
2014-8-31,84.3,75.2,69.2,78.3,73.1,68.8,100,94,68,29.98,29.85,17,5,17,0.01
2014-9-1,81.3,75.4,70.6,74.6,70.5,62.0,100,86,54,29.91,29.74,23,8,23,75.12
2014-9-2,82.3,74.9,68.3,75.4,68.2,56.0,100,82,44,30.02,29.87,16,5,16,0.03
2014-9-3,82.8,73.0,60.6,75.7,66.1,59.0,100,82,46,30.07,29.95,18,5,18,75.84
2014-9-4,89.0,78.3,67.9,79.4,73.9,67.9,100,88,62,30.07,29.93,18,8,21,0.27
2014-9-5,89.9,76.0,62.5,78.3,71.7,62.2,100,88,51,30.15,29.94,43,7,44,0.41
2014-9-6,72.8,64.5,58.9,63.9,56.7,44.7,100,79,39,30.23,30.11,14,4,16,92.16
2014-9-7,77.5,64.4,52.3,64.7,53.3,43.4,100,73,32,30.25,30.13,10,1,11,92.16
2014-9-8,79.3,66.7,55.0,61.4,53.7,41.7,100,69,27,30.16,29.97,16,4,17,92.16
2014-9-9,75.0,66.2,61.6,72.2,65.1,56.6,100,96,67,30.06,29.84,25,5,25,1.23
2014-9-10,76.5,70.1,61.0,74.9,69.7,60.2,100,99,91,29.92,29.61,34,11,35,2.41
2014-9-11,61.2,54.2,51.3,60.2,52.6,49.4,99,94,86,30.30,29.92,18,6,20,0.00
2014-9-12,53.9,50.6,46.3,52.5,49.6,45.9,100,97,90,30.36,30.26,18,6,19,0.00
2014-9-13,60.4,49.6,40.8,47.2,41.7,35.1,100,78,40,30.41,30.31,16,3,16,0.00
2014-9-14,69.0,54.9,41.0,51.7,43.1,34.6,100,71,29,30.34,30.18,15,2,15,0.00
2014-9-15,58.9,55.3,49.9,58.9,55.2,49.7,100,100,96,30.20,30.05,10,3,12,0.43
2014-9-16,67.1,56.2,45.7,55.0,48.2,38.8,100,79,38,30.26,30.10,10,2,11,0.01
2014-9-17,67.7,57.0,45.8,58.2,50.8,45.8,100,83,47,30.10,29.97,16,2,16,0.00
2014-9-18,72.3,60.2,48.6,59.6,49.3,39.2,100,73,32,30.13,30.04,16,3,16,0.00
2014-9-19,77.2,63.1,50.0,58.5,50.8,41.2,100,71,28,30.15,29.99,22,5,23,0.00
2014-9-20,81.0,69.3,58.7,76.0,66.9,58.0,100,93,66,30.01,29.84,22,8,25,0.18
2014-9-21,69.8,62.3,54.8,69.4,54.3,43.0,100,78,42,30.17,29.84,27,10,28,0.01
2014-9-22,67.3,56.8,48.5,54.2,46.0,31.0,100,73,27,30.34,30.17,11,2,12,0.00
2014-9-23,74.8,59.8,46.6,54.0,45.9,37.1,100,67,27,30.37,30.25,12,2,12,0.00
2014-9-24,76.9,62.4,50.5,56.1,46.6,31.2,100,65,20,30.36,30.24,14,2,14,0.00
2014-9-25,81.4,66.7,54.9,59.6,51.8,43.5,98,65,27,30.31,30.19,13,2,18,0.00
2014-9-26,82.2,68.5,55.6,62.3,53.7,46.4,100,65,30,30.27,30.18,14,2,14,0.00
2014-9-27,81.9,69.2,58.3,63.0,53.2,41.5,97,63,25,30.25,30.13,11,3,12,0.00
2014-9-28,82.3,68.4,55.8,62.5,52.0,38.1,100,63,23,30.18,30.07,16,2,16,0.00
2014-9-29,83.8,69.7,56.9,62.0,54.2,46.3,98,64,28,30.09,29.95,14,3,18,0.00
2014-9-30,69.5,60.1,53.2,62.5,55.2,50.0,100,85,54,30.04,29.95,18,7,19,0.00
2014-10-1,80.0,64.0,50.5,68.6,57.4,50.1,100,84,38,29.98,29.84,19,5,19,0.19
2014-10-2,69.4,66.0,64.0,69.0,66.0,63.8,100,100,100,29.89,29.61,18,5,19,0.76
2014-10-3,65.1,54.1,45.2,65.0,47.7,27.4,100,81,48,29.96,29.56,33,14,34,0.48
2014-10-4,50.7,44.4,39.0,39.3,32.5,27.6,95,64,46,29.90,29.84,24,11,28,0.00
2014-10-5,62.1,49.5,38.9,44.8,38.2,28.7,98,70,29,29.85,29.68,18,5,18,0.00
2014-10-6,65.4,55.6,49.5,53.2,42.1,29.3,100,66,27,29.75,29.63,34,9,34,0.00
2014-10-7,71.0,58.6,50.7,60.5,47.5,32.9,100,72,27,29.95,29.69,30,7,30,0.04
2014-10-8,68.3,56.1,44.8,49.3,40.0,28.6,98,61,24,30.13,29.94,21,6,22,0.00
2014-10-9,60.3,55.5,51.2,57.3,53.3,44.4,100,93,64,30.16,30.06,15,3,15,0.06
2014-10-10,58.2,52.1,46.2,53.3,40.6,30.7,97,68,36,30.19,30.09,17,6,17,0.00
2014-10-11,59.9,49.1,40.0,45.7,38.0,26.0,100,71,29,30.27,30.14,14,3,14,0.00
2014-10-12,57.5,49.6,40.2,57.5,48.6,37.9,100,97,81,30.14,29.87,12,3,12,0.06
2014-10-13,67.8,61.8,55.7,67.7,61.8,-15.1,100,100,99,29.88,29.50,31,7,31,0.62
2014-10-14,63.1,59.0,54.5,62.5,58.8,54.3,100,99,93,29.66,29.45,24,6,24,0.20
2014-10-15,55.1,52.4,51.4,54.8,52.4,51.3,100,100,99,29.88,29.65,25,7,25,0.04
2014-10-16,68.0,56.8,52.2,59.1,54.1,50.5,100,92,55,29.91,29.69,16,5,16,0.01
2014-10-17,60.9,55.4,50.1,54.6,48.7,44.1,98,80,56,29.97,29.66,32,12,32,0.00
2014-10-18,53.2,50.1,45.4,50.4,47.6,43.3,100,91,76,30.23,29.96,20,6,20,0.00
2014-10-19,61.6,49.5,36.2,49.8,42.4,36.1,100,80,41,30.25,29.97,28,6,28,0.00
2014-10-20,66.3,55.9,47.9,52.8,45.4,37.1,100,72,35,30.02,29.88,27,8,27,0.00
2014-10-21,58.3,50.2,41.9,48.2,41.0,33.9,99,74,40,30.26,30.02,16,6,18,0.00
2014-10-22,60.1,47.2,36.8,46.0,37.7,31.6,100,75,36,30.36,30.23,17,4,17,0.00
2014-10-23,60.9,49.6,36.6,51.4,43.2,36.3,100,81,46,30.32,30.07,21,4,21,0.00
2014-10-24,65.8,57.4,44.8,58.2,53.2,44.8,100,87,61,30.11,29.95,14,3,14,0.00
2014-10-25,73.8,60.0,50.5,61.9,46.3,27.7,100,68,20,30.05,29.94,18,5,18,0.00
2014-10-26,69.5,57.0,42.2,39.3,30.6,14.5,89,42,13,30.06,29.81,15,5,15,0.00
2014-10-27,76.3,67.2,59.0,66.2,59.0,39.1,100,78,44,29.81,29.61,34,12,34,0.03
2014-10-28,65.1,56.0,45.8,64.3,40.8,24.8,100,61,27,30.07,29.71,33,12,33,0.07
2014-10-29,51.2,44.4,36.2,39.2,34.4,29.8,96,70,45,30.17,30.06,29,8,29,0.00
2014-10-30,50.2,42.1,32.2,46.4,40.0,32.0,100,93,67,30.28,30.06,16,3,16,0.03
2014-10-31,46.2,39.9,33.2,45.5,26.4,17.0,100,61,36,30.53,30.09,40,11,40,0.01
2014-11-1,46.4,36.6,28.6,27.9,23.6,19.0,83,60,40,30.57,30.39,20,5,20,0.00
2014-11-2,50.7,40.6,28.5,33.8,26.3,17.5,98,61,28,30.53,30.19,28,10,28,0.00
2014-11-3,67.8,55.6,40.3,39.8,32.3,25.5,61,42,33,30.28,30.01,32,16,32,0.00
2014-11-4,59.1,48.3,39.7,55.0,44.3,33.2,100,88,39,30.22,29.97,30,11,30,0.04
2014-11-5,62.9,49.0,35.2,46.9,38.3,25.9,100,73,26,30.35,29.93,25,8,25,0.00
2014-11-6,50.0,40.8,30.1,49.9,36.3,27.3,100,85,54,30.38,29.89,42,13,42,0.07
2014-11-7,48.3,38.9,27.1,36.4,31.3,27.0,100,77,46,30.33,29.83,18,7,19,0.00
2014-11-8,49.2,41.8,33.3,43.1,30.1,22.6,88,65,41,30.13,29.77,36,12,36,0.00
2014-11-9,59.5,44.6,30.0,36.7,31.5,26.5,95,63,30,30.03,29.79,29,10,29,0.00
2014-11-10,66.3,54.6,42.7,46.2,41.7,36.2,96,64,36,29.82,29.50,37,14,38,0.00
2014-11-11,57.7,37.8,30.2,47.4,33.7,24.2,100,86,63,30.24,29.61,35,17,35,0.11
2014-11-12,30.7,27.2,24.6,25.6,17.1,11.8,82,66,53,30.39,30.24,24,13,24,0.00
2014-11-13,31.8,24.8,18.7,23.5,18.4,0.0,96,78,45,30.40,30.35,23,11,27,0.00
2014-11-14,30.3,21.9,17.0,19.6,14.8,10.7,93,75,49,30.44,30.37,13,5,15,0.00
2014-11-15,33.7,26.3,15.7,28.8,19.6,14.6,98,78,47,30.41,30.21,11,2,11,0.00
2014-11-16,32.4,27.2,19.1,31.5,26.6,18.0,100,98,90,30.21,29.98,22,9,22,0.00
2014-11-17,23.2,17.0,12.0,18.4,8.4,0.6,96,70,45,30.15,29.96,39,17,39,0.00
2014-11-18,21.5,15.9,10.5,11.7,6.2,2.0,81,66,45,30.23,30.07,31,12,31,0.00
2014-11-19,32.5,26.2,20.0,21.2,15.1,10.6,79,63,52,30.15,29.82,35,15,36,0.00
2014-11-20,32.9,23.5,17.2,15.2,9.9,5.5,77,57,34,30.37,30.13,28,9,28,0.00
2014-11-21,36.3,26.4,9.8,33.0,12.6,3.6,99,60,26,30.48,30.19,24,8,24,0.03
2014-11-22,54.8,46.4,32.9,53.3,46.1,32.5,100,99,94,30.19,29.86,28,12,28,0.18
2014-11-23,52.7,49.6,47.8,52.7,49.4,47.3,100,100,96,29.86,29.18,26,8,26,0.58
2014-11-24,49.9,34.0,29.5,49.8,33.3,27.0,100,97,90,29.95,29.16,42,17,42,0.39
2014-11-25,30.2,25.1,20.9,28.8,23.3,18.4,100,93,79,30.21,29.95,27,7,27,0.00
2014-11-26,29.6,25.6,19.8,29.6,25.2,19.8,100,98,92,30.26,30.07,18,6,18,0.00
2014-11-27,27.6,20.7,10.6,27.3,19.0,0.0,99,93,80,30.48,21.92,22,8,22,0.00
2014-11-28,37.2,29.0,15.2,35.8,27.4,11.7,99,93,80,30.43,29.87,26,10,26,0.00
2014-11-29,53.8,44.5,35.0,51.8,44.2,34.8,100,99,90,29.87,29.66,29,11,29,0.02
2014-11-30,52.8,37.9,25.8,52.5,36.8,20.9,100,96,79,30.34,29.67,26,11,26,0.00
2014-12-1,26.2,21.2,16.1,21.8,10.0,3.0,84,63,41,30.66,30.34,22,8,22,0.00
2014-12-2,30.8,24.3,15.2,29.5,23.3,12.2,100,96,83,30.53,30.12,16,7,19,0.00
2014-12-3,38.5,29.2,22.7,29.4,21.9,16.5,100,77,44,30.41,30.14,16,6,16,0.00
2014-12-4,33.9,30.7,25.7,33.3,26.9,17.3,100,86,62,30.41,30.22,12,5,12,0.00
2014-12-5,39.5,35.7,32.6,39.5,35.7,32.6,100,100,100,30.24,30.13,16,6,17,0.04
2014-12-6,36.4,32.4,27.6,36.0,32.2,27.6,100,99,95,30.63,30.23,19,7,19,0.00
2014-12-7,35.2,31.0,24.9,33.8,30.7,24.8,100,99,95,30.63,30.28,14,6,14,0.00
2014-12-8,40.5,35.1,31.5,40.3,34.8,29.7,100,99,93,30.28,30.06,32,10,32,0.09
2014-12-9,35.6,33.2,30.7,34.7,32.6,30.0,99,98,95,30.41,30.18,22,8,22,0.00
2014-12-10,33.2,31.2,29.1,32.8,28.3,25.3,99,89,80,30.44,30.30,11,3,11,0.00
2014-12-11,32.5,27.9,23.7,27.8,25.8,23.2,99,92,81,30.36,30.28,12,3,12,0.00
2014-12-12,36.3,32.9,23.1,36.3,32.7,23.0,100,99,96,30.39,30.28,9,3,9,0.00
2014-12-13,50.7,42.8,34.1,50.1,42.7,34.1,100,100,97,30.28,30.13,13,4,14,0.00
2014-12-14,48.5,45.4,40.2,48.5,45.4,40.2,100,100,100,30.14,30.00,18,8,18,0.00
2014-12-15,48.2,46.3,44.8,47.9,46.3,44.8,100,100,100,30.01,29.66,23,10,23,0.21
2014-12-16,45.2,33.6,24.6,45.2,33.3,24.0,100,99,96,30.27,29.67,32,16,35,0.14
2014-12-17,27.9,23.7,20.6,25.5,22.6,19.5,98,96,86,30.36,30.26,23,7,23,0.00
2014-12-18,30.1,24.5,19.5,26.0,23.0,19.2,100,94,79,30.34,30.25,8,1,8,0.00
2014-12-19,34.2,26.2,18.3,28.2,24.4,17.6,99,93,66,30.36,30.28,12,0,12,0.00
2014-12-20,35.0,31.2,24.1,33.9,30.6,23.5,100,98,90,30.30,30.23,10,4,10,0.00
2014-12-21,37.7,35.2,33.0,36.5,34.6,32.8,100,98,95,30.25,29.96,25,8,25,0.00
2014-12-22,46.8,40.0,33.7,46.8,39.8,33.4,100,99,96,29.97,29.51,18,8,22,0.52
2014-12-23,48.0,42.1,37.3,46.6,41.3,0.0,100,97,77,29.80,29.51,28,7,28,0.07
2014-12-24,38.3,36.3,35.2,37.8,36.1,34.3,100,99,95,29.80,29.58,24,10,26,0.02
2014-12-25,47.0,39.1,34.2,39.7,36.7,33.6,100,92,65,30.03,29.80,24,12,27,0.00
2014-12-26,53.7,43.9,35.2,47.5,42.7,35.1,100,96,73,30.08,30.01,22,10,22,0.00
2014-12-27,47.4,38.3,29.5,47.2,37.3,28.0,100,96,88,30.20,30.00,32,14,33,0.00
2014-12-28,33.9,27.4,23.7,28.7,23.8,18.9,97,87,57,30.27,30.19,22,4,22,0.00
2014-12-29,35.3,27.3,20.1,28.1,22.9,17.1,100,84,56,30.52,30.26,14,4,14,0.00
2014-12-30,26.1,16.4,10.7,18.4,6.2,-2.8,93,65,37,30.73,30.52,20,8,20,0.00
2014-12-31,22.6,14.4,5.0,5.0,1.5,-2.0,80,57,39,30.69,30.27,23,10,23,0.02
2015-1-1,31.4,23.6,16.2,15.7,10.8,0.0,70,58,44,30.27,30.09,28,10,28,6.38
2015-1-2,37.4,29.6,18.4,34.2,22.7,13.6,100,77,42,30.34,30.12,13,3,13,0.01